status,avgMeasuredTime,avgSpeed,extID,medianMeasuredTime,TIMESTAMP,vehicleCount,_id,REPORT_ID
OK,137,50,790,137,2014-08-01T07:55:00,1,20746514,203583
OK,137,50,790,137,2014-08-01T08:00:00,0,20746845,203583
OK,137,50,790,137,2014-08-01T08:05:00,0,20747294,203583
OK,137,50,790,137,2014-08-01T08:10:00,0,20747667,203583
OK,137,50,790,137,2014-08-01T08:15:00,0,20748116,203583
OK,137,50,790,137,2014-08-01T08:20:00,0,20748565,203583
OK,137,50,790,137,2014-08-01T08:25:00,0,20749014,203583
OK,137,50,790,137,2014-08-01T08:30:00,0,20749463,203583
OK,137,50,790,137,2014-08-01T08:35:00,0,20749912,203583
OK,137,50,790,137,2014-08-01T08:40:00,0,20750361,203583
OK,137,50,790,137,2014-08-01T08:45:00,0,20750810,203583
OK,137,50,790,137,2014-08-01T08:50:00,0,20751259,203583
OK,137,50,790,137,2014-08-01T08:55:00,0,20751708,203583
OK,137,50,790,137,2014-08-01T09:00:00,0,20752157,203583
OK,137,50,790,137,2014-08-01T09:05:00,0,20752606,203583
OK,137,50,790,137,2014-08-01T09:10:00,0,20753055,203583
OK,137,50,790,137,2014-08-01T09:15:00,0,20753504,203583
OK,137,50,790,137,2014-08-01T09:20:00,0,20753953,203583
OK,137,50,790,137,2014-08-01T09:25:00,0,20754402,203583
OK,137,50,790,137,2014-08-01T09:30:00,0,20754851,203583
OK,137,50,790,137,2014-08-01T09:35:00,0,20755300,203583
OK,137,50,790,137,2014-08-01T09:40:00,0,20755749,203583
OK,137,50,790,137,2014-08-01T09:45:00,0,20756198,203583
OK,137,50,790,137,2014-08-01T09:50:00,0,20756647,203583
OK,137,50,790,137,2014-08-01T09:55:00,0,20757096,203583
OK,137,50,790,137,2014-08-01T10:00:00,0,20757545,203583
OK,137,50,790,137,2014-08-01T10:05:00,0,20757994,203583
OK,137,50,790,137,2014-08-01T10:10:00,0,20758443,203583
OK,137,50,790,137,2014-08-01T10:15:00,0,20758892,203583
OK,164,41,790,164,2014-08-01T10:20:00,2,20759341,203583
OK,164,41,790,164,2014-08-01T10:25:00,2,20759790,203583
OK,164,41,790,164,2014-08-01T10:30:00,0,20760239,203583
OK,164,41,790,164,2014-08-01T10:35:00,0,20760688,203583
OK,164,41,790,164,2014-08-01T10:40:00,0,20761137,203583
OK,164,41,790,164,2014-08-01T10:45:00,0,20761586,203583
OK,164,41,790,164,2014-08-01T10:50:00,0,20762035,203583
OK,164,41,790,164,2014-08-01T10:55:00,0,20762484,203583
OK,164,41,790,164,2014-08-01T11:00:00,0,20762933,203583
OK,164,41,790,164,2014-08-01T11:05:00,0,20763382,203583
OK,164,41,790,164,2014-08-01T11:10:00,0,20763831,203583
OK,164,41,790,164,2014-08-01T11:15:00,0,20764279,203583
OK,164,41,790,164,2014-08-01T11:20:00,0,20764728,203583
OK,164,41,790,164,2014-08-01T11:25:00,0,20765177,203583
OK,164,41,790,164,2014-08-01T11:30:00,0,20765626,203583
OK,164,41,790,164,2014-08-01T11:35:00,0,20766075,203583
OK,188,36,790,188,2014-08-01T11:40:00,1,20766524,203583
OK,188,36,790,188,2014-08-01T11:45:00,1,20766973,203583
OK,188,36,790,188,2014-08-01T11:50:00,0,20767422,203583
OK,188,36,790,188,2014-08-01T11:55:00,0,20767871,203583
OK,156,44,790,156,2014-08-01T12:00:00,1,20768320,203583
OK,156,44,790,156,2014-08-01T12:05:00,1,20768769,203583
OK,156,44,790,156,2014-08-01T12:10:00,0,20769218,203583
OK,156,44,790,156,2014-08-01T12:15:00,0,20769667,203583
OK,156,44,790,156,2014-08-01T12:20:00,0,20770116,203583
OK,156,44,790,156,2014-08-01T12:25:00,0,20770565,203583
OK,156,44,790,156,2014-08-01T12:30:00,0,20771014,203583
OK,156,44,790,156,2014-08-01T12:35:00,0,20771463,203583
OK,156,44,790,156,2014-08-01T12:40:00,0,20771912,203583
OK,156,44,790,156,2014-08-01T12:45:00,0,20772361,203583
OK,156,44,790,156,2014-08-01T12:50:00,0,20772810,203583
OK,156,44,790,156,2014-08-01T12:55:00,0,20773259,203583
OK,156,44,790,156,2014-08-01T13:00:00,0,20773708,203583
OK,147,46,790,147,2014-08-01T13:05:00,1,20774157,203583
OK,147,46,790,147,2014-08-01T13:10:00,1,20774606,203583
OK,147,46,790,147,2014-08-01T13:15:00,0,20775055,203583
OK,147,46,790,147,2014-08-01T13:20:00,0,20775504,203583
OK,147,46,790,147,2014-08-01T13:25:00,0,20775953,203583
OK,147,46,790,147,2014-08-01T13:30:00,0,20776402,203583
OK,147,46,790,147,2014-08-01T13:35:00,0,20776851,203583
OK,147,46,790,147,2014-08-01T13:40:00,0,20777300,203583
OK,147,46,790,147,2014-08-01T13:45:00,0,20777749,203583
OK,147,46,790,147,2014-08-01T13:50:00,0,20778198,203583
OK,147,46,790,147,2014-08-01T13:55:00,0,20778647,203583
OK,147,46,790,147,2014-08-01T14:00:00,0,20779096,203583
OK,147,46,790,147,2014-08-01T14:05:00,0,20779545,203583
OK,147,46,790,147,2014-08-01T14:10:00,0,20779994,203583
OK,147,46,790,147,2014-08-01T14:15:00,0,20780443,203583
OK,147,46,790,147,2014-08-01T14:20:00,0,20780892,203583
OK,147,46,790,147,2014-08-01T14:25:00,0,20781341,203583
OK,199,34,790,199,2014-08-01T14:30:00,1,20781790,203583
OK,115,59,790,115,2014-08-01T14:35:00,3,20782239,203583
OK,114,60,790,114,2014-08-01T14:40:00,0,20782688,203583
OK,114,60,790,114,2014-08-01T14:45:00,0,20783137,203583
OK,114,60,790,114,2014-08-01T14:50:00,0,20783586,203583
OK,114,60,790,114,2014-08-01T14:55:00,0,20784035,203583
OK,114,60,790,114,2014-08-01T15:00:00,0,20784484,203583
OK,114,60,790,114,2014-08-01T15:05:00,0,20784933,203583
OK,114,60,790,114,2014-08-01T15:10:00,0,20785382,203583
OK,114,60,790,114,2014-08-01T15:15:00,0,20785831,203583
OK,179,38,790,179,2014-08-01T15:20:00,1,20786280,203583
OK,179,38,790,179,2014-08-01T15:25:00,1,20786729,203583
OK,179,38,790,179,2014-08-01T15:30:00,0,20787178,203583
OK,179,38,790,179,2014-08-01T15:35:00,0,20787627,203583
OK,179,38,790,179,2014-08-01T15:40:00,0,20788076,203583
OK,193,35,790,193,2014-08-01T15:45:00,1,20788525,203583
OK,202,33,790,202,2014-08-01T15:50:00,2,20788974,203583
OK,211,32,790,211,2014-08-01T15:55:00,1,20789423,203583
OK,188,36,790,188,2014-08-01T16:00:00,1,20789872,203583
OK,188,36,790,188,2014-08-01T16:05:00,1,20790321,203583
OK,188,36,790,188,2014-08-01T16:10:00,0,20790770,203583
OK,188,36,790,188,2014-08-01T16:15:00,0,20791219,203583
OK,188,36,790,188,2014-08-01T16:20:00,0,20791668,203583
OK,188,36,790,188,2014-08-01T16:25:00,0,20792117,203583
OK,188,36,790,188,2014-08-01T16:30:00,0,20792566,203583
OK,188,36,790,188,2014-08-01T16:35:00,0,20793015,203583
OK,188,36,790,188,2014-08-01T16:40:00,0,20793464,203583
OK,188,36,790,188,2014-08-01T16:45:00,0,20793913,203583
OK,188,36,790,188,2014-08-01T16:50:00,0,20794362,203583
OK,188,36,790,188,2014-08-01T16:55:00,0,20794811,203583
OK,188,36,790,188,2014-08-01T17:00:00,0,20795260,203583
OK,188,36,790,188,2014-08-01T17:05:00,0,20795709,203583
OK,188,36,790,188,2014-08-01T17:10:00,0,20796158,203583
OK,188,36,790,188,2014-08-01T17:15:00,0,20796607,203583
OK,188,36,790,188,2014-08-01T17:20:00,0,20797056,203583
OK,188,36,790,188,2014-08-01T17:25:00,0,20797505,203583
OK,188,36,790,188,2014-08-01T17:30:00,0,20797954,203583
OK,188,36,790,188,2014-08-01T17:35:00,0,20798403,203583
OK,188,36,790,188,2014-08-01T17:40:00,0,20798852,203583
OK,188,36,790,188,2014-08-01T17:45:00,0,20799301,203583
OK,188,36,790,188,2014-08-01T17:50:00,0,20799750,203583
OK,188,36,790,188,2014-08-01T17:55:00,0,20800199,203583
OK,188,36,790,188,2014-08-01T18:00:00,0,20800648,203583
OK,188,36,790,188,2014-08-01T18:05:00,0,20801097,203583
OK,188,36,790,188,2014-08-01T18:10:00,0,20801546,203583
OK,188,36,790,188,2014-08-01T18:15:00,0,20801995,203583
OK,188,36,790,188,2014-08-01T18:20:00,0,20802444,203583
OK,188,36,790,188,2014-08-01T18:25:00,0,20802893,203583
OK,188,36,790,188,2014-08-01T18:30:00,0,20803342,203583
OK,188,36,790,188,2014-08-01T18:35:00,0,20803791,203583
OK,188,36,790,188,2014-08-01T18:40:00,0,20804240,203583
OK,188,36,790,188,2014-08-01T18:45:00,0,20804689,203583
OK,130,52,790,130,2014-08-01T18:50:00,1,20805138,203583
OK,130,52,790,130,2014-08-01T18:55:00,1,20805587,203583
OK,130,52,790,130,2014-08-01T19:00:00,0,20806036,203583
OK,130,52,790,130,2014-08-01T19:05:00,0,20806485,203583
OK,130,52,790,130,2014-08-01T19:10:00,0,20806934,203583
OK,130,52,790,130,2014-08-01T19:15:00,0,20807383,203583
OK,130,52,790,130,2014-08-01T19:20:00,0,20807832,203583
OK,130,52,790,130,2014-08-01T19:25:00,0,20808281,203583
OK,130,52,790,130,2014-08-01T19:30:00,0,20808730,203583
OK,130,52,790,130,2014-08-01T19:35:00,0,20809179,203583
OK,130,52,790,130,2014-08-01T19:40:00,0,20809628,203583
OK,130,52,790,130,2014-08-01T19:45:00,0,20810077,203583
OK,130,52,790,130,2014-08-01T19:50:00,0,20810526,203583
OK,130,52,790,130,2014-08-01T19:55:00,0,20810975,203583
OK,130,52,790,130,2014-08-01T22:00:00,0,20816704,203583
OK,130,52,790,130,2014-08-01T22:05:00,0,20817153,203583
OK,130,52,790,130,2014-08-01T22:10:00,0,20817475,203583
OK,130,52,790,130,2014-08-01T22:20:00,0,20818194,203583
OK,130,52,790,130,2014-08-02T00:00:00,0,20823143,203583
OK,130,52,790,130,2014-08-02T00:05:00,0,20823592,203583
OK,130,52,790,130,2014-08-02T00:10:00,0,20824041,203583
OK,130,52,790,130,2014-08-02T00:15:00,0,20824490,203583
OK,130,52,790,130,2014-08-02T00:20:00,0,20824939,203583
OK,130,52,790,130,2014-08-02T00:25:00,0,20825388,203583
OK,130,52,790,130,2014-08-02T00:30:00,0,20825837,203583
OK,130,52,790,130,2014-08-02T00:35:00,0,20826286,203583
OK,130,52,790,130,2014-08-02T00:40:00,0,20826735,203583
OK,130,52,790,130,2014-08-02T00:45:00,0,20827184,203583
OK,130,52,790,130,2014-08-02T00:50:00,0,20827633,203583
OK,130,52,790,130,2014-08-02T00:55:00,0,20828082,203583
OK,130,52,790,130,2014-08-02T01:00:00,0,20828531,203583
OK,130,52,790,130,2014-08-02T01:05:00,0,20828980,203583
OK,130,52,790,130,2014-08-02T01:10:00,0,20829429,203583
OK,130,52,790,130,2014-08-02T01:15:00,0,20829878,203583
OK,130,52,790,130,2014-08-02T01:20:00,0,20830327,203583
OK,130,52,790,130,2014-08-02T01:25:00,0,20830776,203583
OK,130,52,790,130,2014-08-02T01:30:00,0,20831225,203583
OK,130,52,790,130,2014-08-02T01:35:00,0,20831674,203583
OK,130,52,790,130,2014-08-02T01:40:00,0,20832123,203583
OK,130,52,790,130,2014-08-02T01:45:00,0,20832572,203583
OK,130,52,790,130,2014-08-02T01:50:00,0,20833021,203583
OK,130,52,790,130,2014-08-02T01:55:00,0,20833470,203583
OK,130,52,790,130,2014-08-02T02:00:00,0,20833919,203583
OK,130,52,790,130,2014-08-02T02:05:00,0,20834368,203583
OK,130,52,790,130,2014-08-02T02:10:00,0,20834817,203583
OK,130,52,790,130,2014-08-02T02:15:00,0,20835266,203583
OK,130,52,790,130,2014-08-02T02:20:00,0,20835715,203583
OK,130,52,790,130,2014-08-02T02:25:00,0,20836164,203583
OK,130,52,790,130,2014-08-02T02:30:00,0,20836613,203583
OK,130,52,790,130,2014-08-02T02:35:00,0,20837062,203583
OK,130,52,790,130,2014-08-02T02:40:00,0,20837511,203583
OK,130,52,790,130,2014-08-02T02:45:00,0,20837960,203583
OK,130,52,790,130,2014-08-02T02:50:00,0,20838409,203583
OK,130,52,790,130,2014-08-02T02:55:00,0,20838858,203583
OK,130,52,790,130,2014-08-02T03:00:00,0,20839307,203583
OK,130,52,790,130,2014-08-02T03:05:00,0,20839756,203583
OK,130,52,790,130,2014-08-02T03:10:00,0,20840205,203583
OK,130,52,790,130,2014-08-02T03:15:00,0,20840654,203583
OK,130,52,790,130,2014-08-02T03:20:00,0,20841103,203583
OK,130,52,790,130,2014-08-02T03:25:00,0,20841552,203583
OK,130,52,790,130,2014-08-02T03:30:00,0,20842001,203583
OK,130,52,790,130,2014-08-02T03:35:00,0,20842450,203583
OK,130,52,790,130,2014-08-02T03:40:00,0,20842899,203583
OK,130,52,790,130,2014-08-02T03:45:00,0,20843348,203583
OK,130,52,790,130,2014-08-02T03:50:00,0,20843797,203583
OK,130,52,790,130,2014-08-02T03:55:00,0,20844246,203583
OK,130,52,790,130,2014-08-02T04:10:00,0,20845336,203583
OK,130,52,790,130,2014-08-02T04:20:00,0,20845692,203583
OK,130,52,790,130,2014-08-02T04:30:00,0,20846248,203583
OK,130,52,790,130,2014-08-02T04:35:00,0,20846615,203583
OK,130,52,790,130,2014-08-02T04:40:00,0,20846998,203583
OK,130,52,790,130,2014-08-02T04:45:00,0,20847257,203583
OK,130,52,790,130,2014-08-02T04:50:00,0,20847623,203583
OK,130,52,790,130,2014-08-02T05:20:00,0,20849394,203583
OK,130,52,790,130,2014-08-02T05:40:00,0,20850484,203583
OK,130,52,790,130,2014-08-02T05:50:00,0,20851143,203583
OK,130,52,790,130,2014-08-02T06:00:00,0,20851700,203583
OK,130,52,790,130,2014-08-02T06:05:00,0,20852149,203583
OK,130,52,790,130,2014-08-02T06:10:00,0,20852598,203583
OK,130,52,790,130,2014-08-02T06:15:00,0,20853047,203583
OK,130,52,790,130,2014-08-02T06:20:00,0,20853496,203583
OK,130,52,790,130,2014-08-02T06:25:00,0,20853945,203583
OK,130,52,790,130,2014-08-02T06:30:00,0,20854394,203583
OK,130,52,790,130,2014-08-02T06:35:00,0,20854843,203583
OK,130,52,790,130,2014-08-02T06:40:00,0,20855292,203583
OK,130,52,790,130,2014-08-02T06:45:00,0,20855741,203583
OK,130,52,790,130,2014-08-02T06:50:00,0,20856190,203583
OK,130,52,790,130,2014-08-02T06:55:00,0,20856639,203583
OK,130,52,790,130,2014-08-02T07:00:00,0,20857088,203583
OK,130,52,790,130,2014-08-02T07:05:00,0,20857537,203583
OK,130,52,790,130,2014-08-02T07:10:00,0,20857986,203583
OK,130,52,790,130,2014-08-02T07:15:00,0,20858435,203583
OK,130,52,790,130,2014-08-02T07:20:00,0,20858884,203583
OK,130,52,790,130,2014-08-02T07:25:00,0,20859333,203583
OK,130,52,790,130,2014-08-02T07:30:00,0,20859782,203583
OK,130,52,790,130,2014-08-02T07:35:00,0,20860231,203583
OK,130,52,790,130,2014-08-02T07:40:00,0,20860680,203583
OK,130,52,790,130,2014-08-02T07:45:00,0,20861129,203583
OK,130,52,790,130,2014-08-02T07:50:00,0,20861578,203583
OK,130,52,790,130,2014-08-02T07:55:00,0,20862027,203583
OK,130,52,790,130,2014-08-02T08:00:00,0,20862476,203583
OK,130,52,790,130,2014-08-02T08:05:00,0,20862925,203583
OK,130,52,790,130,2014-08-02T08:10:00,0,20863374,203583
OK,130,52,790,130,2014-08-02T08:15:00,0,20863823,203583
OK,130,52,790,130,2014-08-02T08:20:00,0,20864272,203583
OK,130,52,790,130,2014-08-02T08:25:00,0,20864721,203583
OK,130,52,790,130,2014-08-02T08:30:00,0,20865170,203583
OK,130,52,790,130,2014-08-02T08:35:00,0,20865619,203583
OK,130,52,790,130,2014-08-02T08:40:00,0,20866068,203583
OK,130,52,790,130,2014-08-02T08:45:00,0,20866517,203583
OK,130,52,790,130,2014-08-02T08:50:00,0,20866966,203583
OK,130,52,790,130,2014-08-02T08:55:00,0,20867415,203583
OK,130,52,790,130,2014-08-02T09:00:00,0,20867864,203583
OK,130,52,790,130,2014-08-02T09:05:00,0,20868313,203583
OK,130,52,790,130,2014-08-02T09:10:00,0,20868762,203583
OK,130,52,790,130,2014-08-02T09:15:00,0,20869211,203583
OK,130,52,790,130,2014-08-02T09:20:00,0,20869660,203583
OK,192,35,790,192,2014-08-02T09:25:00,1,20870109,203583
OK,192,35,790,192,2014-08-02T09:30:00,1,20870558,203583
OK,192,35,790,192,2014-08-02T09:35:00,0,20871007,203583
OK,192,35,790,192,2014-08-02T09:40:00,0,20871456,203583
OK,192,35,790,192,2014-08-02T09:45:00,0,20871905,203583
OK,192,35,790,192,2014-08-02T09:50:00,0,20872354,203583
OK,192,35,790,192,2014-08-02T09:55:00,0,20872803,203583
OK,192,35,790,192,2014-08-02T10:00:00,0,20873252,203583
OK,192,35,790,192,2014-08-02T10:05:00,0,20873701,203583
OK,192,35,790,192,2014-08-02T10:10:00,0,20874150,203583
OK,192,35,790,192,2014-08-02T10:15:00,0,20874599,203583
OK,192,35,790,192,2014-08-02T10:20:00,0,20875048,203583
OK,192,35,790,192,2014-08-02T10:25:00,0,20875497,203583
OK,192,35,790,192,2014-08-02T10:30:00,0,20875946,203583
OK,192,35,790,192,2014-08-02T10:35:00,0,20876395,203583
OK,192,35,790,192,2014-08-02T10:40:00,0,20876844,203583
OK,192,35,790,192,2014-08-02T10:45:00,0,20877293,203583
OK,192,35,790,192,2014-08-02T10:50:00,0,20877742,203583
OK,192,35,790,192,2014-08-02T10:55:00,0,20878191,203583
OK,192,35,790,192,2014-08-02T11:00:00,0,20878640,203583
OK,192,35,790,192,2014-08-02T11:05:00,0,20879089,203583
OK,192,35,790,192,2014-08-02T11:10:00,0,20879538,203583
OK,192,35,790,192,2014-08-02T11:15:00,0,20879987,203583
OK,182,37,790,182,2014-08-02T11:20:00,1,20880436,203583
OK,182,37,790,182,2014-08-02T11:25:00,1,20880885,203583
OK,182,37,790,182,2014-08-02T11:30:00,0,20881334,203583
OK,182,37,790,182,2014-08-02T11:35:00,0,20881783,203583
OK,182,37,790,182,2014-08-02T11:40:00,0,20882232,203583
OK,182,37,790,182,2014-08-02T11:45:00,0,20882681,203583
OK,182,37,790,182,2014-08-02T11:50:00,0,20883130,203583
OK,182,37,790,182,2014-08-02T11:55:00,0,20883579,203583
OK,182,37,790,182,2014-08-02T12:00:00,0,20884028,203583
OK,182,37,790,182,2014-08-02T12:05:00,0,20884477,203583
OK,182,37,790,182,2014-08-02T12:10:00,0,20884926,203583
OK,182,37,790,182,2014-08-02T12:15:00,0,20885375,203583
OK,182,37,790,182,2014-08-02T12:20:00,0,20885824,203583
OK,182,37,790,182,2014-08-02T12:25:00,0,20886273,203583
OK,182,37,790,182,2014-08-02T12:30:00,0,20886722,203583
OK,182,37,790,182,2014-08-02T12:35:00,0,20887171,203583
OK,182,37,790,182,2014-08-02T12:40:00,0,20887620,203583
OK,182,37,790,182,2014-08-02T12:45:00,0,20888069,203583
OK,182,37,790,182,2014-08-02T12:50:00,0,20888518,203583
OK,182,37,790,182,2014-08-02T12:55:00,0,20888967,203583
OK,182,37,790,182,2014-08-02T13:00:00,0,20889416,203583
OK,182,37,790,182,2014-08-02T13:05:00,0,20889865,203583
OK,182,37,790,182,2014-08-02T13:10:00,0,20890314,203583
OK,182,37,790,182,2014-08-02T13:15:00,0,20890763,203583
OK,182,37,790,182,2014-08-02T13:20:00,0,20891212,203583
OK,182,37,790,182,2014-08-02T13:25:00,0,20891661,203583
OK,182,37,790,182,2014-08-02T13:30:00,0,20892110,203583
OK,182,37,790,182,2014-08-02T13:35:00,0,20892559,203583
OK,221,31,790,221,2014-08-02T13:40:00,2,20893008,203583
OK,218,31,790,218,2014-08-02T13:45:00,3,20893457,203583
OK,153,44,790,153,2014-08-02T13:50:00,1,20893906,203583
OK,153,44,790,153,2014-08-02T13:55:00,0,20894355,203583
OK,153,44,790,153,2014-08-02T14:00:00,0,20894804,203583
OK,153,44,790,153,2014-08-02T14:05:00,0,20895253,203583
OK,153,44,790,153,2014-08-02T14:10:00,0,20895702,203583
OK,153,44,790,153,2014-08-02T14:15:00,0,20896151,203583
OK,153,44,790,153,2014-08-02T14:20:00,0,20896600,203583
OK,153,44,790,153,2014-08-02T14:25:00,0,20897049,203583
OK,153,44,790,153,2014-08-02T14:30:00,0,20897498,203583
OK,153,44,790,153,2014-08-02T14:35:00,0,20897947,203583
OK,153,44,790,153,2014-08-02T14:40:00,0,20898396,203583
OK,170,40,790,170,2014-08-02T14:45:00,1,20898845,203583
OK,170,40,790,170,2014-08-02T14:50:00,1,20899294,203583
OK,170,40,790,170,2014-08-02T14:55:00,0,20899743,203583
OK,170,40,790,170,2014-08-02T15:00:00,0,20900192,203583
OK,170,40,790,170,2014-08-02T15:05:00,0,20900641,203583
OK,170,40,790,170,2014-08-02T15:10:00,0,20901090,203583
OK,170,40,790,170,2014-08-02T15:15:00,0,20901539,203583
OK,170,40,790,170,2014-08-02T15:20:00,0,20901988,203583
OK,170,40,790,170,2014-08-02T15:25:00,0,20902437,203583
OK,170,40,790,170,2014-08-02T15:30:00,0,20902886,203583
OK,170,40,790,170,2014-08-02T15:35:00,0,20903335,203583
OK,170,40,790,170,2014-08-02T15:40:00,0,20903784,203583
OK,170,40,790,170,2014-08-02T15:45:00,0,20904233,203583
OK,170,40,790,170,2014-08-02T15:50:00,0,20904682,203583
OK,170,40,790,170,2014-08-02T15:55:00,0,20905131,203583
OK,170,40,790,170,2014-08-02T16:00:00,0,20905580,203583
OK,170,40,790,170,2014-08-02T16:05:00,0,20906029,203583
OK,170,40,790,170,2014-08-02T16:10:00,0,20906478,203583
OK,170,40,790,170,2014-08-02T16:15:00,0,20906927,203583
OK,170,40,790,170,2014-08-02T16:20:00,0,20907376,203583
OK,215,31,790,215,2014-08-02T16:25:00,1,20907825,203583
OK,215,31,790,215,2014-08-02T16:30:00,0,20908274,203583
OK,215,31,790,215,2014-08-02T16:35:00,0,20908723,203583
OK,215,31,790,215,2014-08-02T16:40:00,0,20909172,203583
OK,163,42,790,163,2014-08-02T16:45:00,1,20909621,203583
OK,163,42,790,163,2014-08-02T16:50:00,0,20910070,203583
OK,163,42,790,163,2014-08-02T16:55:00,0,20910519,203583
OK,163,42,790,163,2014-08-02T17:00:00,0,20910968,203583
OK,163,42,790,163,2014-08-02T17:05:00,0,20911417,203583
OK,163,42,790,163,2014-08-02T17:10:00,0,20911866,203583
OK,163,42,790,163,2014-08-02T17:15:00,0,20912315,203583
OK,163,42,790,163,2014-08-02T17:20:00,0,20912764,203583
OK,163,42,790,163,2014-08-02T17:25:00,0,20913213,203583
OK,163,42,790,163,2014-08-02T17:30:00,0,20913662,203583
OK,163,42,790,163,2014-08-02T17:35:00,0,20914111,203583
OK,163,42,790,163,2014-08-02T17:40:00,0,20914560,203583
OK,163,42,790,163,2014-08-02T17:45:00,0,20915009,203583
OK,163,42,790,163,2014-08-02T17:50:00,0,20915458,203583
OK,163,42,790,163,2014-08-02T17:55:00,0,20915907,203583
OK,163,42,790,163,2014-08-02T18:00:00,0,20916356,203583
OK,163,42,790,163,2014-08-02T18:05:00,0,20916805,203583
OK,163,42,790,163,2014-08-02T18:10:00,0,20917254,203583
OK,163,42,790,163,2014-08-02T18:15:00,0,20917703,203583
OK,163,42,790,163,2014-08-02T18:20:00,0,20918152,203583
OK,163,42,790,163,2014-08-02T18:25:00,0,20918601,203583
OK,163,42,790,163,2014-08-02T18:30:00,0,20919050,203583
OK,163,42,790,163,2014-08-02T18:35:00,0,20919499,203583
OK,163,42,790,163,2014-08-02T18:40:00,0,20919948,203583
OK,163,42,790,163,2014-08-02T18:45:00,0,20920397,203583
OK,163,42,790,163,2014-08-02T18:50:00,0,20920846,203583
OK,163,42,790,163,2014-08-02T18:55:00,0,20921295,203583
OK,163,42,790,163,2014-08-02T19:00:00,0,20921744,203583
OK,163,42,790,163,2014-08-02T19:05:00,0,20922193,203583
OK,163,42,790,163,2014-08-02T19:10:00,0,20922642,203583
OK,163,42,790,163,2014-08-02T19:15:00,0,20923091,203583
OK,163,42,790,163,2014-08-02T19:20:00,0,20923540,203583
OK,163,42,790,163,2014-08-02T19:25:00,0,20923989,203583
OK,163,42,790,163,2014-08-02T19:30:00,0,20924438,203583
OK,163,42,790,163,2014-08-02T19:35:00,0,20924887,203583
OK,163,42,790,163,2014-08-02T19:40:00,0,20925336,203583
OK,163,42,790,163,2014-08-02T19:45:00,0,20925785,203583
OK,163,42,790,163,2014-08-02T19:50:00,0,20926234,203583
OK,163,42,790,163,2014-08-02T19:55:00,0,20926683,203583
OK,163,42,790,163,2014-08-02T20:00:00,0,20927132,203583
OK,163,42,790,163,2014-08-02T20:05:00,0,20927581,203583
OK,163,42,790,163,2014-08-02T20:10:00,0,20928030,203583
OK,163,42,790,163,2014-08-02T20:15:00,0,20928479,203583
OK,163,42,790,163,2014-08-02T20:20:00,0,20928928,203583
OK,163,42,790,163,2014-08-02T20:25:00,0,20929377,203583
OK,163,42,790,163,2014-08-02T20:30:00,0,20929826,203583
OK,163,42,790,163,2014-08-02T20:35:00,0,20930275,203583
OK,163,42,790,163,2014-08-02T20:40:00,0,20930724,203583
OK,163,42,790,163,2014-08-02T20:45:00,0,20931173,203583
OK,215,31,790,215,2014-08-02T20:50:00,1,20931622,203583
OK,215,31,790,215,2014-08-02T20:55:00,1,20932071,203583
OK,215,31,790,215,2014-08-02T21:00:00,0,20932520,203583
OK,215,31,790,215,2014-08-02T21:05:00,0,20932969,203583
OK,215,31,790,215,2014-08-02T21:10:00,0,20933418,203583
OK,215,31,790,215,2014-08-02T21:15:00,0,20933867,203583
OK,215,31,790,215,2014-08-02T21:20:00,0,20934316,203583
OK,215,31,790,215,2014-08-02T21:25:00,0,20934765,203583
OK,215,31,790,215,2014-08-02T21:30:00,0,20935214,203583
OK,215,31,790,215,2014-08-02T21:35:00,0,20935663,203583
OK,215,31,790,215,2014-08-02T21:40:00,0,20936112,203583
OK,215,31,790,215,2014-08-02T21:45:00,0,20936561,203583
OK,215,31,790,215,2014-08-02T21:50:00,0,20937010,203583
OK,215,31,790,215,2014-08-02T21:55:00,0,20937459,203583
OK,215,31,790,215,2014-08-02T22:00:00,0,20937908,203583
OK,215,31,790,215,2014-08-02T22:05:00,0,20938357,203583
OK,215,31,790,215,2014-08-02T22:10:00,0,20938806,203583
OK,215,31,790,215,2014-08-02T22:15:00,0,20939255,203583
OK,215,31,790,215,2014-08-02T22:20:00,0,20939704,203583
OK,215,31,790,215,2014-08-02T22:25:00,0,20940153,203583
OK,215,31,790,215,2014-08-02T22:30:00,0,20940602,203583
OK,215,31,790,215,2014-08-02T22:35:00,0,20941051,203583
OK,215,31,790,215,2014-08-02T22:40:00,0,20941500,203583
OK,215,31,790,215,2014-08-02T22:45:00,0,20941949,203583
OK,215,31,790,215,2014-08-02T22:50:00,0,20942398,203583
OK,215,31,790,215,2014-08-02T22:55:00,0,20942847,203583
OK,215,31,790,215,2014-08-02T23:00:00,0,20943296,203583
OK,215,31,790,215,2014-08-02T23:10:00,0,20943745,203583
OK,215,31,790,215,2014-08-02T23:15:00,0,20944194,203583
OK,215,31,790,215,2014-08-02T23:20:00,0,20944643,203583
OK,215,31,790,215,2014-08-02T23:25:00,0,20945092,203583
OK,215,31,790,215,2014-08-02T23:30:00,0,20945541,203583
OK,215,31,790,215,2014-08-02T23:35:00,0,20945990,203583
OK,215,31,790,215,2014-08-02T23:40:00,0,20946439,203583